Weather WX

World > North America > United States > Mississippi

Nicholson, Mississippi Regional Weather

Lat: 30.48N, Lon: 89.69W
Wx Zone: MSZ077
Warning FLW WEATHER ALERT - (More Info. Click Here) Warning
Feedback

Nicholson, MS Regional Weather

Expires:201906180000;;650693
ASUS44 KJAN 172310
RWRMS 

MISSISSIPPI HOURLY WEATHER ROUNDUP
NATIONAL WEATHER SERVICE JACKSON MS
600 PM CDT MON JUN 17 2019

NOTE: "FAIR: INDICATES FEW OR NO CLOUDS BELOW 12,000 FEET WITH NO
SIGNIFICANT WEATHER AND/OR OBSTRUCTIONS TO VISIBILITY.


MSZ059>079-180000-
SOUTH MISSISSIPPI
  
CITY           SKY/WX    TMP DP  RH WIND       PRES   REMARKS
BROOKHAVEN     FAIR      81  73  78 E6        29.95R                  
HATTIESBURG    FAIR      85  70  60 SW7       29.94S                  
LAUREL         CLEAR     80  71  74 W6        29.95R                  
MCCOMB         LGT RAIN  80  73  79 SE7       29.93R                  
NATCHEZ        FAIR      83  72  69 S5        29.90F                  
PINE BELT      FAIR      81  72  74 CALM      29.95S                  
$$


SKY/WX - Weather  TMP - Temperature  DP - Dew Point  RH - Relative Humidity
WIND - Wind Direction/Speed PRES - Barometric Pressure VSB - Visibility
WCI - Wind Chill Index E13G22 Wind - East Wind 13 mph/Gusts of 22 mph